GLO1266 SBBR-SBCY

Flight info

Callsign GLO1266
Flight time 1h 13m
Altitude FL320
Route OMNI/11L LODUV DCT LODOV UM668 ANRET DCT BOKIM
Aircraft B738/M-S/N

Departure

Time 2026-04-25 00:56
Airport Presidente Juscelino Kubitschek International Airport (SBBR)

Arrival

Time 2026-04-25 02:10
Airport Várzea Grande–Marechal Rondon International Airport (SBCY)
Time Latitude Longitude Altitude Speed Heading
2026-04-25 00:33 -15.86993 -47.92014 3487 ft 0 kts 267°
2026-04-25 00:38 -15.86993 -47.92008 3487 ft 2 kts 267°
2026-04-25 00:38 -15.86992 -47.91991 3487 ft 3 kts 267°
2026-04-25 00:39 -15.86992 -47.91975 3487 ft 0 kts 267°
2026-04-25 00:44 -15.86991 -47.91971 3487 ft 2 kts 267°
2026-04-25 00:44 -15.86991 -47.91955 3487 ft 3 kts 267°
2026-04-25 00:44 -15.86990 -47.91935 3487 ft 3 kts 267°
2026-04-25 00:45 -15.86989 -47.91930 3487 ft 0 kts 267°
2026-04-25 00:46 -15.86987 -47.91939 3487 ft 2 kts 295°
2026-04-25 00:46 -15.86935 -47.91943 3487 ft 6 kts
2026-04-25 00:47 -15.86898 -47.91941 3487 ft 3 kts
2026-04-25 00:47 -15.86874 -47.91930 3487 ft 5 kts 32°
2026-04-25 00:47 -15.86842 -47.91906 3487 ft 7 kts 43°
2026-04-25 00:47 -15.86813 -47.91868 3487 ft 7 kts 72°
2026-04-25 00:48 -15.86799 -47.91822 3487 ft 6 kts 72°
2026-04-25 00:48 -15.86785 -47.91775 3487 ft 8 kts 73°
2026-04-25 00:48 -15.86778 -47.91718 3487 ft 8 kts 88°
2026-04-25 00:48 -15.86776 -47.91659 3487 ft 7 kts 88°
2026-04-25 00:49 -15.86760 -47.91624 3487 ft 4 kts 19°
2026-04-25 00:49 -15.86727 -47.91627 3487 ft 6 kts 356°
2026-04-25 00:49 -15.86677 -47.91630 3487 ft 9 kts 355°
2026-04-25 00:49 -15.86609 -47.91636 3487 ft 11 kts 355°
2026-04-25 00:50 -15.86543 -47.91642 3487 ft 8 kts 356°
2026-04-25 00:50 -15.86502 -47.91645 3487 ft 3 kts 350°
2026-04-25 00:50 -15.86475 -47.91653 3487 ft 5 kts 333°
2026-04-25 00:50 -15.86455 -47.91686 3487 ft 6 kts 277°
2026-04-25 00:51 -15.86456 -47.91739 3487 ft 9 kts 266°
2026-04-25 00:51 -15.86460 -47.91808 3487 ft 11 kts 266°
2026-04-25 00:51 -15.86465 -47.91899 3487 ft 14 kts 266°
2026-04-25 00:51 -15.86471 -47.91999 3487 ft 12 kts 266°
2026-04-25 00:52 -15.86476 -47.92077 3487 ft 14 kts 266°
2026-04-25 00:52 -15.86483 -47.92186 3487 ft 16 kts 266°
2026-04-25 00:52 -15.86491 -47.92310 3487 ft 18 kts 266°
2026-04-25 00:52 -15.86499 -47.92428 3487 ft 10 kts 266°
2026-04-25 00:53 -15.86503 -47.92494 3487 ft 12 kts 266°
2026-04-25 00:53 -15.86510 -47.92600 3487 ft 15 kts 266°
2026-04-25 00:53 -15.86518 -47.92717 3487 ft 16 kts 266°
2026-04-25 00:53 -15.86492 -47.92770 3487 ft 6 kts 359°
2026-04-25 00:54 -15.86474 -47.92770 3487 ft 0 kts 358°
2026-04-25 00:55 -15.86472 -47.92770 3487 ft 2 kts 358°
2026-04-25 00:55 -15.86436 -47.92772 3487 ft 8 kts 358°
2026-04-25 00:55 -15.86374 -47.92773 3487 ft 10 kts 10°
2026-04-25 00:55 -15.86352 -47.92711 3487 ft 18 kts 89°
2026-04-25 00:56 -15.86329 -47.92312 3487 ft 94 kts 86°
2026-04-25 00:56 -15.86268 -47.91396 3508 ft 156 kts 85°
2026-04-25 00:56 -15.86197 -47.90179 3891 ft 191 kts 87°
2026-04-25 00:56 -15.86177 -47.89015 4127 ft 220 kts 90°
2026-04-25 00:57 -15.86502 -47.87298 4662 ft 251 kts 113°
2026-04-25 00:57 -15.87732 -47.85966 5445 ft 264 kts 148°
2026-04-25 00:57 -15.89512 -47.85548 6525 ft 268 kts 179°
2026-04-25 00:57 -15.91299 -47.86172 7527 ft 276 kts 211°
2026-04-25 00:58 -15.92529 -47.87644 8549 ft 280 kts 241°
2026-04-25 00:58 -15.93073 -47.89321 9552 ft 281 kts 256°
2026-04-25 00:58 -15.93459 -47.91219 10469 ft 287 kts 259°
2026-04-25 00:58 -15.93794 -47.92857 11279 ft 290 kts 258°
2026-04-25 00:59 -15.94252 -47.94995 12181 ft 297 kts 257°
2026-04-25 00:59 -15.94794 -47.97096 13103 ft 301 kts 254°
2026-04-25 00:59 -15.95450 -47.99172 13926 ft 306 kts 251°
2026-04-25 00:59 -15.96180 -48.01270 14734 ft 311 kts 250°
2026-04-25 01:00 -15.96967 -48.03375 15483 ft 317 kts 249°
2026-04-25 01:00 -15.97818 -48.05525 16195 ft 324 kts 248°
2026-04-25 01:00 -15.98551 -48.07295 16752 ft 329 kts 248°
2026-04-25 01:00 -15.99491 -48.09516 17437 ft 335 kts 247°
2026-04-25 01:01 -16.00463 -48.11729 18097 ft 341 kts 246°
2026-04-25 01:01 -16.01475 -48.13957 18753 ft 346 kts 245°
2026-04-25 01:01 -16.02540 -48.16237 19420 ft 350 kts 244°
2026-04-25 01:01 -16.03618 -48.18508 20070 ft 354 kts 243°
2026-04-25 01:02 -16.04731 -48.20801 20699 ft 358 kts 243°
2026-04-25 01:02 -16.05876 -48.23114 21310 ft 362 kts 242°
2026-04-25 01:02 -16.07044 -48.25449 21905 ft 366 kts 242°
2026-04-25 01:02 -16.08247 -48.27787 22478 ft 370 kts 241°
2026-04-25 01:03 -16.09467 -48.30152 23105 ft 371 kts 242°
2026-04-25 01:03 -16.10687 -48.32523 23686 ft 375 kts 241°
2026-04-25 01:03 -16.11936 -48.34887 24265 ft 378 kts 240°
2026-04-25 01:03 -16.13222 -48.37284 24804 ft 382 kts 240°
2026-04-25 01:04 -16.14527 -48.39694 25329 ft 385 kts 240°
2026-04-25 01:04 -16.15868 -48.42108 25841 ft 388 kts 239°
2026-04-25 01:04 -16.17226 -48.44544 26342 ft 392 kts 239°
2026-04-25 01:04 -16.18589 -48.46996 26837 ft 395 kts 239°
2026-04-25 01:05 -16.19970 -48.49481 27322 ft 398 kts 239°
2026-04-25 01:05 -16.21356 -48.51969 27798 ft 401 kts 239°
2026-04-25 01:05 -16.22761 -48.54490 28266 ft 404 kts 239°
2026-04-25 01:05 -16.24180 -48.57016 28727 ft 407 kts 239°
2026-04-25 01:06 -16.25592 -48.59550 29311 ft 406 kts 239°
2026-04-25 01:06 -16.27018 -48.62093 29733 ft 410 kts 239°
2026-04-25 01:06 -16.28454 -48.64668 30193 ft 412 kts 239°
2026-04-25 01:06 -16.29894 -48.67241 30630 ft 415 kts 239°
2026-04-25 01:07 -16.31353 -48.69854 31061 ft 418 kts 238°
2026-04-25 01:07 -16.32808 -48.72460 31480 ft 420 kts 239°
2026-04-25 01:07 -16.34284 -48.75105 31852 ft 424 kts 239°
2026-04-25 01:07 -16.35776 -48.77780 31961 ft 434 kts 239°
2026-04-25 01:08 -16.37310 -48.80519 31990 ft 443 kts 237°
2026-04-25 01:08 -16.40887 -48.85838 32003 ft 457 kts 232°
2026-04-25 01:09 -16.44715 -48.91223 32004 ft 469 kts 233°
2026-04-25 01:09 -16.48590 -48.96754 32003 ft 479 kts 232°
2026-04-25 01:10 -16.52565 -49.02391 32003 ft 487 kts 233°
2026-04-25 01:10 -16.56580 -49.08128 31998 ft 492 kts 232°
2026-04-25 01:11 -16.60611 -49.13912 31999 ft 497 kts 232°
2026-04-25 01:11 -16.64683 -49.19733 31999 ft 499 kts 232°
2026-04-25 01:12 -16.68777 -49.25584 31999 ft 501 kts 233°
2026-04-25 01:12 -16.72877 -49.31427 31999 ft 501 kts 232°
2026-04-25 01:13 -16.76950 -49.37277 31983 ft 499 kts 232°
2026-04-25 01:13 -16.81011 -49.43125 31982 ft 499 kts 233°
2026-04-25 01:14 -16.85105 -49.48977 31982 ft 499 kts 233°
2026-04-25 01:14 -16.89196 -49.54806 31983 ft 498 kts 232°
2026-04-25 01:15 -16.93276 -49.60613 31988 ft 498 kts 232°
2026-04-25 01:15 -16.97355 -49.66431 31988 ft 497 kts 232°
2026-04-25 01:16 -17.01401 -49.72272 31988 ft 497 kts 233°
2026-04-25 01:16 -17.05464 -49.78099 31988 ft 497 kts 233°
2026-04-25 01:17 -17.09499 -49.83919 31972 ft 494 kts 233°
2026-04-25 01:17 -17.13100 -49.89141 31972 ft 493 kts 233°
2026-04-25 01:18 -17.16584 -49.94196 31971 ft 493 kts 233°
2026-04-25 01:18 -17.19593 -50.00431 31971 ft 496 kts 258°
2026-04-25 01:18 -17.19791 -50.03867 31966 ft 497 kts 272°
2026-04-25 01:19 -17.19322 -50.07433 31963 ft 498 kts 279°
2026-04-25 01:19 -17.17885 -50.14521 31962 ft 498 kts 281°
2026-04-25 01:20 -17.16351 -50.21559 31962 ft 498 kts 282°
2026-04-25 01:20 -17.14762 -50.28604 31962 ft 498 kts 282°
2026-04-25 01:21 -17.13161 -50.35627 31962 ft 498 kts 283°
2026-04-25 01:21 -17.11540 -50.42669 31949 ft 499 kts 283°
2026-04-25 01:22 -17.09937 -50.49625 31949 ft 499 kts 283°
2026-04-25 01:22 -17.08426 -50.56199 31950 ft 499 kts 283°
2026-04-25 01:23 -17.06903 -50.62848 31949 ft 499 kts 283°
2026-04-25 01:23 -17.05284 -50.69898 31959 ft 498 kts 283°
2026-04-25 01:24 -17.03671 -50.76899 31960 ft 499 kts 283°
2026-04-25 01:24 -17.02047 -50.83929 31960 ft 499 kts 283°
2026-04-25 01:25 -17.00419 -50.90951 31961 ft 499 kts 283°
2026-04-25 01:25 -16.98787 -50.97975 31962 ft 498 kts 283°
2026-04-25 01:26 -16.97151 -51.04990 31962 ft 499 kts 283°
2026-04-25 01:26 -16.95509 -51.12009 31962 ft 499 kts 283°
2026-04-25 01:27 -16.93860 -51.19030 31962 ft 499 kts 283°
2026-04-25 01:27 -16.92208 -51.26039 31955 ft 500 kts 284°
2026-04-25 01:28 -16.89712 -51.36616 31951 ft 501 kts 284°
2026-04-25 01:28 -16.88037 -51.43658 31951 ft 501 kts 284°
2026-04-25 01:29 -16.86357 -51.50697 31951 ft 501 kts 284°
2026-04-25 01:29 -16.84750 -51.57763 31962 ft 503 kts 284°
2026-04-25 01:30 -16.83085 -51.64856 31962 ft 506 kts 284°
2026-04-25 01:30 -16.81402 -51.71976 31962 ft 507 kts 284°
2026-04-25 01:31 -16.79702 -51.79086 31962 ft 507 kts 284°
2026-04-25 01:31 -16.78016 -51.86226 31965 ft 508 kts 285°
2026-04-25 01:32 -16.76327 -51.93362 31966 ft 508 kts 284°
2026-04-25 01:32 -16.74619 -52.00514 31966 ft 509 kts 284°
2026-04-25 01:33 -16.72905 -52.07652 31966 ft 509 kts 284°
2026-04-25 01:33 -16.71198 -52.14786 31964 ft 509 kts 284°
2026-04-25 01:34 -16.69486 -52.21933 31964 ft 509 kts 284°
2026-04-25 01:34 -16.67772 -52.29092 31964 ft 509 kts 284°
2026-04-25 01:35 -16.66062 -52.36229 31964 ft 509 kts 284°
2026-04-25 01:35 -16.64348 -52.43390 31957 ft 509 kts 285°
2026-04-25 01:36 -16.62570 -52.50513 31955 ft 509 kts 285°
2026-04-25 01:36 -16.60880 -52.57665 31955 ft 509 kts 284°
2026-04-25 01:37 -16.59205 -52.64793 31955 ft 509 kts 284°
2026-04-25 01:37 -16.57512 -52.71967 31949 ft 510 kts 284°
2026-04-25 01:38 -16.55817 -52.79119 31947 ft 510 kts 284°
2026-04-25 01:38 -16.54065 -52.86282 31948 ft 511 kts 284°
2026-04-25 01:39 -16.52323 -52.93430 31947 ft 511 kts 285°
2026-04-25 01:39 -16.50578 -53.00602 31955 ft 511 kts 285°
2026-04-25 01:40 -16.48802 -53.07741 31960 ft 512 kts 285°
2026-04-25 01:40 -16.47014 -53.14899 31960 ft 512 kts 285°
2026-04-25 01:41 -16.45263 -53.22093 31960 ft 512 kts 285°
2026-04-25 01:41 -16.43517 -53.29267 31960 ft 511 kts 285°
2026-04-25 01:42 -16.41767 -53.36424 31953 ft 512 kts 285°
2026-04-25 01:42 -16.39997 -53.43596 31953 ft 513 kts 285°
2026-04-25 01:43 -16.38222 -53.50772 31953 ft 513 kts 285°
2026-04-25 01:43 -16.36454 -53.57952 31948 ft 514 kts 285°
2026-04-25 01:44 -16.34673 -53.65140 31936 ft 514 kts 285°
2026-04-25 01:44 -16.32886 -53.72328 31936 ft 514 kts 285°
2026-04-25 01:45 -16.31098 -53.79516 31936 ft 514 kts 285°
2026-04-25 01:45 -16.29317 -53.86717 31936 ft 514 kts 285°
2026-04-25 01:46 -16.27510 -53.93900 31923 ft 515 kts 285°
2026-04-25 01:46 -16.25699 -54.01078 31923 ft 515 kts 285°
2026-04-25 01:47 -16.23880 -54.08260 31924 ft 515 kts 285°
2026-04-25 01:47 -16.22082 -54.15455 31911 ft 515 kts 285°
2026-04-25 01:48 -16.20310 -54.22630 31896 ft 514 kts 285°
2026-04-25 01:48 -16.18824 -54.29896 31899 ft 515 kts 274°
2026-04-25 01:49 -16.18977 -54.37328 31895 ft 516 kts 267°
2026-04-25 01:49 -16.19356 -54.44751 31896 ft 516 kts 267°
2026-04-25 01:50 -16.19805 -54.52185 31891 ft 516 kts 266°
2026-04-25 01:50 -16.20410 -54.59590 31890 ft 516 kts 265°
2026-04-25 01:51 -16.20950 -54.67017 31890 ft 516 kts 266°
2026-04-25 01:51 -16.21213 -54.70692 31887 ft 502 kts 266°
2026-04-25 01:51 -16.21460 -54.74211 31864 ft 479 kts 266°
2026-04-25 01:52 -16.21700 -54.77628 31438 ft 469 kts 266°
2026-04-25 01:52 -16.21933 -54.80969 30941 ft 461 kts 266°
2026-04-25 01:52 -16.22163 -54.84261 30443 ft 455 kts 266°
2026-04-25 01:52 -16.22389 -54.87514 29956 ft 449 kts 266°
2026-04-25 01:53 -16.22612 -54.90733 29482 ft 444 kts 266°
2026-04-25 01:53 -16.22834 -54.93910 29010 ft 440 kts 266°
2026-04-25 01:53 -16.23053 -54.97056 28539 ft 436 kts 266°
2026-04-25 01:53 -16.23271 -55.00196 28068 ft 432 kts 266°
2026-04-25 01:54 -16.23484 -55.03278 27599 ft 428 kts 266°
2026-04-25 01:54 -16.23697 -55.06361 27142 ft 425 kts 266°
2026-04-25 01:54 -16.23908 -55.09403 26682 ft 421 kts 266°
2026-04-25 01:54 -16.24116 -55.12421 26229 ft 418 kts 267°
2026-04-25 01:55 -16.24323 -55.15411 25786 ft 414 kts 267°
2026-04-25 01:55 -16.24527 -55.18385 25344 ft 410 kts 267°
2026-04-25 01:55 -16.24729 -55.21322 24967 ft 405 kts 264°
2026-04-25 01:55 -16.24885 -55.23499 24695 ft 401 kts 264°
2026-04-25 01:56 -16.24944 -55.25352 24479 ft 398 kts 269°
2026-04-25 01:56 -16.24668 -55.27769 24118 ft 396 kts 283°
2026-04-25 01:56 -16.24091 -55.29357 23835 ft 396 kts 295°
2026-04-25 01:56 -16.22635 -55.31767 23341 ft 395 kts 305°
2026-04-25 01:57 -16.19378 -55.36322 22314 ft 387 kts 305°
2026-04-25 01:57 -16.18668 -55.37293 22093 ft 383 kts 306°
2026-04-25 01:57 -16.18466 -55.37568 22030 ft 382 kts 306°
2026-04-25 01:58 -16.17497 -55.38876 21727 ft 377 kts 306°
2026-04-25 01:58 -16.15957 -55.40943 21240 ft 370 kts 306°
2026-04-25 01:58 -16.14371 -55.43072 20729 ft 363 kts 307°
2026-04-25 01:58 -16.12843 -55.45124 20229 ft 358 kts 307°
2026-04-25 01:59 -16.11326 -55.47160 19726 ft 354 kts 307°
2026-04-25 01:59 -16.09838 -55.49165 19227 ft 350 kts 307°
2026-04-25 01:59 -16.08381 -55.51197 18727 ft 352 kts 306°
2026-04-25 01:59 -16.06924 -55.53225 18225 ft 349 kts 306°
2026-04-25 02:00 -16.05462 -55.55232 17723 ft 347 kts 307°
2026-04-25 02:00 -16.04014 -55.57193 17226 ft 345 kts 307°
2026-04-25 02:00 -16.02549 -55.59162 16723 ft 342 kts 307°
2026-04-25 02:00 -16.01301 -55.61246 16221 ft 340 kts 298°
2026-04-25 02:01 -16.00287 -55.63454 15574 ft 341 kts 295°
2026-04-25 02:01 -15.99304 -55.65717 14706 ft 348 kts 295°
2026-04-25 02:01 -15.98287 -55.68005 13835 ft 353 kts 295°
2026-04-25 02:01 -15.97240 -55.70330 12956 ft 356 kts 296°
2026-04-25 02:02 -15.96165 -55.72644 12082 ft 357 kts 296°
2026-04-25 02:02 -15.95066 -55.74963 11205 ft 358 kts 297°
2026-04-25 02:02 -15.93943 -55.77267 10329 ft 358 kts 297°
2026-04-25 02:02 -15.92820 -55.79551 9458 ft 357 kts 297°
2026-04-25 02:03 -15.91691 -55.81849 8577 ft 355 kts 297°
2026-04-25 02:03 -15.90748 -55.83773 7840 ft 353 kts 297°
2026-04-25 02:03 -15.89558 -55.86199 6896 ft 350 kts 297°
2026-04-25 02:03 -15.88460 -55.88428 6023 ft 347 kts 297°
2026-04-25 02:04 -15.87366 -55.90651 5145 ft 344 kts 297°
2026-04-25 02:04 -15.86286 -55.92847 4271 ft 342 kts 297°
2026-04-25 02:04 -15.85208 -55.95033 3396 ft 340 kts 297°
2026-04-25 02:04 -15.84144 -55.97189 2710 ft 334 kts 297°
2026-04-25 02:05 -15.83148 -55.99207 2334 ft 319 kts 297°
2026-04-25 02:05 -15.82202 -56.01089 2209 ft 300 kts 299°
2026-04-25 02:05 -15.81068 -56.02917 2174 ft 278 kts 308°
2026-04-25 02:05 -15.79680 -56.04255 2173 ft 255 kts 326°
2026-04-25 02:06 -15.78205 -56.05021 2175 ft 216 kts 338°
2026-04-25 02:06 -15.76946 -56.05559 2180 ft 179 kts 338°
2026-04-25 02:06 -15.75929 -56.06047 2177 ft 147 kts 336°
2026-04-25 02:06 -15.75067 -56.06487 2196 ft 133 kts 335°
2026-04-25 02:07 -15.74259 -56.06910 2173 ft 131 kts 335°
2026-04-25 02:07 -15.73451 -56.07331 2174 ft 131 kts 335°
2026-04-25 02:07 -15.72646 -56.07750 2104 ft 126 kts 333°
2026-04-25 02:07 -15.71870 -56.08161 1905 ft 124 kts 332°
2026-04-25 02:08 -15.71103 -56.08567 1728 ft 124 kts 332°
2026-04-25 02:08 -15.70334 -56.08974 1553 ft 124 kts 332°
2026-04-25 02:08 -15.69564 -56.09381 1384 ft 125 kts 331°
2026-04-25 02:08 -15.68801 -56.09794 1209 ft 125 kts 331°
2026-04-25 02:09 -15.68027 -56.10209 1041 ft 125 kts 331°
2026-04-25 02:09 -15.67256 -56.10618 875 ft 125 kts 331°
2026-04-25 02:09 -15.66483 -56.11038 712 ft 125 kts 331°
2026-04-25 02:09 -15.65718 -56.11434 623 ft 118 kts 333°
2026-04-25 02:10 -15.65194 -56.11700 622 ft 39 kts 334°
2026-04-25 02:10 -15.65054 -56.11764 622 ft 17 kts 336°
2026-04-25 02:10 -15.64974 -56.11810 622 ft 10 kts 310°
2026-04-25 02:10 -15.64984 -56.11866 622 ft 9 kts 236°
2026-04-25 02:11 -15.64993 -56.11928 622 ft 9 kts 308°
2026-04-25 02:11 -15.64935 -56.11955 622 ft 8 kts 329°
2026-04-25 02:11 -15.64928 -56.11984 622 ft 3 kts 242°
2026-04-25 02:11 -15.64941 -56.12010 622 ft 5 kts 243°
2026-04-25 02:12 -15.64946 -56.12019 622 ft 0 kts 243°